Slayton, MN

1:08 AM CST on January 20, 2017 (GMT -0600)
Slayton

Weather History for KDVP - January, 2013

Change the Weather History Date:

Saturday, January 19, 2013

  Actual Average (KOTG) Record (KOTG)
Temperature  
Mean Temperature 21 °F -  
Max Temperature 39 °F 21 °F 42 °F (1981)
Min Temperature 2 °F 6 °F -21 °F (1985)
Degree Days  
Heating Degree Days 44    
Moisture  
Dew Point 21 °F    
Average Humidity 77    
Maximum Humidity 89    
Minimum Humidity 66    
Precipitation  
Precipitation 0.00 in - - ()
Sea Level Pressure  
Sea Level Pressure 29.94 in    
Wind  
Wind Speed 16 mph (WNW)    
Max Wind Speed 34 mph    
Max Gust Speed 43 mph    
Visibility 10 miles    
Events Snow    
Averages and records for this station are not official NWS values.
T = Trace of Precipitation, MM = Missing Value Source: NWS Daily Summary

Daily Weather History Graph

Daily Weather History Graph

Search for Another Location

Airport or City:

Trip Planner

Search our weather history database for the weather conditions in past years. The results will help you decide how hot, cold, wet, or windy it might be!

Date:

Astronomy

Jan. 19, 2013 Rise Set
Actual Time 7:51 AM CST 5:16 PM CST
Civil Twilight 7:20 AM CST 5:48 PM CST
Nautical Twilight 6:44 AM CST 6:23 PM CST
Astronomical Twilight 6:10 AM CST 6:57 PM CST
Moon 11:45 AM CST (1/19) 1:24 AM CST (1/19)
Length of Visible Light 10h 27m
Length of Day
9h 24m
First Quarter, 57% of the Moon is Illuminated
Jan 19
First Quarter
Jan 26
Full
Feb 3
Last Quarter
Feb 10
New
Feb 17
First Quarter

Hourly Weather History & Observations

Time (CST) Temp. Windchill Dew Point Humidity Pressure Visibility Wind Dir Wind Speed Gust Speed Precip Events Conditions
12:15 AM 33.8 °F 25.3 °F 30.7 °F 89% 29.77 in 10.0 mi SSW 11.5 mph - N/A   Mostly Cloudy
12:35 AM 33.6 °F 26.2 °F 30.6 °F 89% 29.77 in 10.0 mi SSW 9.2 mph - N/A   Scattered Clouds
12:55 AM 34.2 °F 26.2 °F 30.2 °F 85% 29.76 in 10.0 mi SW 10.4 mph - N/A   Mostly Cloudy
1:15 AM 34.3 °F 27.0 °F 30.2 °F 85% 29.76 in 10.0 mi SSW 9.2 mph - N/A   Overcast
1:36 AM 34.2 °F 27.5 °F 30.2 °F 85% 29.75 in 10.0 mi SSW 8.1 mph - N/A   Mostly Cloudy
1:55 AM 35.1 °F 27.9 °F 29.7 °F 81% 29.75 in 10.0 mi SW 9.2 mph - N/A   Scattered Clouds
2:15 AM 35.8 °F 28.8 °F 29.7 °F 78% 29.75 in 10.0 mi WSW 9.2 mph - N/A   Mostly Cloudy
2:35 AM 37.9 °F 30.5 °F 28.9 °F 70% 29.75 in 10.0 mi WSW 11.5 mph - N/A   Mostly Cloudy
2:55 AM 36.9 °F 30.1 °F 29.1 °F 74% 29.75 in 10.0 mi WSW 9.2 mph - N/A   Scattered Clouds
3:15 AM 36.3 °F 30.8 °F 29.1 °F 75% 29.76 in 10.0 mi West 6.9 mph - N/A   Clear
3:35 AM 34.9 °F 29.9 °F 29.1 °F 79% 29.75 in 10.0 mi WSW 5.8 mph - N/A   Clear
3:54 AM 33.1 °F 25.5 °F 29.1 °F 85% 29.75 in 10.0 mi SW 9.2 mph - N/A   Clear
4:15 AM 33.4 °F 25.4 °F 29.3 °F 85% 29.74 in 10.0 mi WSW 10.4 mph - N/A   Clear
4:35 AM 34.7 °F 27.5 °F 29.1 °F 80% 29.74 in 10.0 mi WSW 9.2 mph - N/A   Clear
4:55 AM 34.7 °F 27.5 °F 28.8 °F 79% 29.74 in 10.0 mi WSW 9.2 mph - N/A   Clear
5:15 AM 34.2 °F 26.2 °F 28.4 °F 79% 29.74 in 10.0 mi West 10.4 mph - N/A   Clear
5:35 AM 34.0 °F 25.5 °F 28.2 °F 79% 29.76 in 10.0 mi WNW 11.5 mph - N/A   Clear
5:55 AM 32.7 °F 27.3 °F 28.0 °F 83% 29.76 in 10.0 mi West 5.8 mph - N/A   Clear
6:15 AM 33.1 °F 26.1 °F 27.9 °F 81% 29.75 in 10.0 mi West 8.1 mph - N/A   Clear
6:35 AM 33.4 °F 26.6 °F 28.0 °F 81% 29.76 in 10.0 mi WNW 8.1 mph - N/A   Clear
6:55 AM 32.7 °F 25.0 °F 28.0 °F 83% 29.76 in 10.0 mi West 9.2 mph - N/A   Clear
7:14 AM 33.1 °F 23.0 °F 28.2 °F 82% 29.76 in 10.0 mi West 15.0 mph - N/A   Clear
7:35 AM 34.2 °F 24.4 °F 28.0 °F 78% 29.76 in 10.0 mi West 15.0 mph - N/A   Clear
7:55 AM 33.8 °F 23.5 °F 28.0 °F 79% 29.77 in 10.0 mi West 16.1 mph - N/A   Clear
8:15 AM 34.0 °F 21.8 °F 28.2 °F 79% 29.78 in 10.0 mi West 23.0 mph 26.5 mph N/A   Clear
8:35 AM 33.8 °F 23.2 °F 28.2 °F 80% 29.80 in 10.0 mi WNW 17.3 mph - N/A   Clear
8:55 AM 33.6 °F 23.3 °F 28.4 °F 81% 29.81 in 10.0 mi WNW 16.1 mph - N/A   Clear
9:35 AM 34.3 °F 24.2 °F 28.8 °F 80% 29.83 in 10.0 mi West 16.1 mph - N/A   Clear
9:55 AM 35.6 °F 24.5 °F 29.3 °F 78% 29.85 in 10.0 mi WNW 20.7 mph - N/A   Clear
10:15 AM 37.0 °F 28.5 °F 29.7 °F 75% 29.86 in 10.0 mi WNW 13.8 mph - N/A   Scattered Clouds
10:35 AM 38.7 °F 29.1 °F 30.6 °F 73% 29.86 in 10.0 mi WNW 18.4 mph - N/A   Clear
10:55 AM 39.6 °F 30.0 °F 30.7 °F 71% 29.86 in 10.0 mi WNW 19.6 mph 26.5 mph N/A   Clear
11:15 AM 39.2 °F 28.7 °F 30.2 °F 70% 29.87 in 10.0 mi WNW 23.0 mph 27.6 mph N/A   Clear
11:34 AM 39.4 °F 28.7 °F 30.9 °F 72% 29.87 in 10.0 mi WNW 24.2 mph 27.6 mph N/A   Clear
11:55 AM 39.6 °F 28.5 °F 30.7 °F 71% 29.88 in 10.0 mi WNW 26.5 mph 32.2 mph N/A   Clear
12:15 PM 39.0 °F 28.3 °F 31.1 °F 73% 29.88 in 10.0 mi WNW 24.2 mph 34.5 mph N/A   Clear
12:35 PM 38.8 °F 27.8 °F 31.1 °F 74% 29.88 in 10.0 mi WNW 25.3 mph 32.2 mph N/A   Clear
12:55 PM 38.8 °F 27.1 °F 30.7 °F 73% 29.89 in 10.0 mi WNW 28.8 mph 34.5 mph N/A   Clear
1:15 PM 38.8 °F 27.6 °F 31.1 °F 74% 29.90 in 10.0 mi WNW 26.5 mph 34.5 mph N/A   Mostly Cloudy
1:35 PM 37.4 °F 25.4 °F 30.7 °F 77% 29.90 in 10.0 mi WNW 27.6 mph 34.5 mph N/A   Overcast
1:55 PM 37.8 °F 25.9 °F 30.6 °F 75% 29.90 in 10.0 mi WNW 27.6 mph 36.8 mph N/A   Mostly Cloudy
2:15 PM 37.4 °F 25.0 °F 30.7 °F 77% 29.91 in 10.0 mi WNW 29.9 mph 39.1 mph N/A   Overcast
2:35 PM 36.7 °F 24.0 °F 29.5 °F 75% 29.92 in 10.0 mi WNW 29.9 mph 39.1 mph N/A   Overcast
2:55 PM 32.2 °F 19.7 °F 27.9 °F 84% 29.96 in 10.0 mi NNW 21.9 mph 42.6 mph N/A   Overcast
3:15 PM 30.4 °F 17.3 °F 26.8 °F 86% 29.97 in 10.0 mi NW 21.9 mph 31.1 mph N/A   Mostly Cloudy
3:35 PM 31.3 °F 16.9 °F 26.8 °F 83% 29.98 in 10.0 mi NW 28.8 mph 35.7 mph N/A   Mostly Cloudy
3:54 PM 28.4 °F 13.3 °F 22.8 °F 80% 30.01 in 10.0 mi NW 27.6 mph 36.8 mph N/A   Mostly Cloudy
4:15 PM 25.0 °F 8.1 °F 19.8 °F 81% 30.03 in 10.0 mi NW 29.9 mph 36.8 mph N/A   Mostly Cloudy
4:35 PM 23.9 °F 6.4 °F 18.1 °F 79% 30.04 in 10.0 mi WNW 31.1 mph 39.1 mph N/A   Mostly Cloudy
4:55 PM 23.0 °F 5.1 °F 15.8 °F 74% 30.07 in 10.0 mi NW 31.1 mph 41.4 mph N/A   Overcast
5:15 PM 20.7 °F 1.7 °F 14.9 °F 78% 30.09 in 5.0 mi NW 32.2 mph 42.6 mph N/A Snow Light Snow
5:35 PM 17.6 °F -1.9 °F 10.4 °F 73% 30.12 in 10.0 mi NW 29.9 mph 41.4 mph N/A Snow Light Snow
5:55 PM 15.6 °F -5.5 °F 9.5 °F 77% 30.14 in 7.0 mi NW 33.4 mph 39.1 mph N/A   Overcast
6:15 PM 13.6 °F -8.5 °F 6.4 °F 73% 30.15 in 10.0 mi NW 34.5 mph 38.0 mph N/A   Scattered Clouds
6:35 PM 12.4 °F -10.2 °F 5.0 °F 72% 30.17 in 10.0 mi NW 34.5 mph 40.3 mph N/A   Scattered Clouds
6:55 PM 11.1 °F -11.0 °F 2.1 °F 67% 30.18 in 10.0 mi NW 31.1 mph 42.6 mph N/A   Scattered Clouds
7:15 PM 10.2 °F -11.3 °F 1.4 °F 68% 30.20 in 10.0 mi NW 27.6 mph 38.0 mph N/A   Clear
7:35 PM 9.1 °F -11.2 °F -0.0 °F 66% 30.21 in 10.0 mi NW 23.0 mph 40.3 mph N/A   Clear
7:55 PM 8.6 °F -13.8 °F -0.2 °F 67% 30.22 in 10.0 mi NW 28.8 mph 38.0 mph N/A   Clear
8:14 PM 8.1 °F -13.0 °F -0.4 °F 68% 30.24 in 10.0 mi NW 24.2 mph - N/A   Clear
8:55 PM 6.6 °F -15.3 °F -1.5 °F 69% 30.25 in 10.0 mi NW 25.3 mph 31.1 mph N/A   Clear
9:15 PM 5.9 °F -14.1 °F -2.0 °F 70% 30.25 in 10.0 mi NNW 19.6 mph 29.9 mph N/A   Clear
9:35 PM 5.7 °F -13.8 °F -1.7 °F 72% 30.25 in 10.0 mi NW 18.4 mph 24.2 mph N/A   Clear
9:55 PM 4.8 °F -16.4 °F -2.2 °F 73% 30.26 in 10.0 mi NW 21.9 mph 27.6 mph N/A   Clear
10:15 PM 4.5 °F -16.9 °F -2.6 °F 73% 30.25 in 10.0 mi NW 21.9 mph 28.8 mph N/A   Clear
10:35 PM 4.1 °F -16.9 °F -3.1 °F 72% 30.26 in 10.0 mi NW 20.7 mph 24.2 mph N/A   Clear
10:55 PM 3.7 °F -15.2 °F -3.3 °F 73% 30.27 in 10.0 mi NNW 16.1 mph 19.6 mph N/A   Clear
11:15 PM 3.4 °F -16.3 °F -3.5 °F 73% 30.28 in 10.0 mi NW 17.3 mph - N/A   Clear
11:35 PM 3.0 °F -16.1 °F -3.8 °F 73% 30.27 in 10.0 mi NW 16.1 mph 25.3 mph N/A   Clear
11:55 PM 2.8 °F -17.5 °F -3.8 °F 74% 30.28 in 10.0 mi NW 18.4 mph 23.0 mph N/A   Clear